QPF
0.01 0.01 0.01 0.02 0.01 0.01 0.01 0.01 0.01 0.02 0.04 0.04 0.04 0.04 0.03 0.03 0.03 0.02 0.02 0.02 0.02 0.03 0.04 0.07 0.08 0.06 0.06 0.07 0.08 0.08 0.07 0.06 0.05 0.05 0.04 0.05 0.06 0.05
0.00 0.01 0.03 0.02 0.00 0.00 0.01 0.01 0.01 0.01 0.02 0.02 0.01 0.01 0.01 0.00 0.00 0.00 0.00 0.00 0.00 0.01 0.02 0.04 0.06 0.05 0.04 0.04 0.04 0.04 0.04 0.04 0.05 0.05 0.04 0.03 0.02 0.02
0.01 0.02 0.02 0.01 0.00 0.00 0.01 0.00 0.00 0.00 0.01 0.01 0.00 0.00 0.00 0.00 0.00 0.00 0.00 0.00 0.00 0.00 0.00 0.01 0.02 0.03 0.03 0.03 0.02 0.02 0.02 0.02 0.02 0.02 0.03 0.02 0.02 0.01
0.02 0.02 0.01 0.01 0.00 0.00 0.00 0.00 0.00 0.00 0.00 0.00 0.00 0.00 0.00 0.00 0.00 0.00 0.00 0.00 0.00 0.01 0.01 0.01 0.01 0.01 0.01 0.01 0.01 0.01 0.01 0.01 0.01 0.00 0.00 0.00 0.00 0.01
0.02 0.01 0.01 0.00 0.00 0.00 0.00 0.00 0.00 0.00 0.00 0.00 0.00 0.00 0.00 0.01 0.00 0.00 0.00 0.01 0.01 0.01 0.01 0.01 0.01 0.01 0.00 0.01 0.01 0.00 0.00 0.00 0.00 0.00 0.00 0.00 0.00 0.00
0.02 0.01 0.00 0.00 0.00 0.00 0.00 0.00 0.00 0.00 0.00 0.00 0.00 0.00 0.00 0.00 0.00 0.00 0.00 0.00 0.00 0.00 0.00 0.00 0.00 0.00 0.00 0.00 0.00 0.00 0.00 0.00 0.00 0.00 0.00 0.00 0.00 0.00
0.01 0.00 0.00 0.00 0.00 0.00 0.00 0.00 0.00 0.00 0.00 0.00 0.00 0.00 0.00 0.00 0.00 0.00 0.01 0.01 0.00 0.00 0.00 0.00 0.00 0.00 0.00 0.00 0.00 0.00 0.00 0.00 0.00 0.00 0.00 0.00 0.00 0.00
0.00 0.00 0.00 0.00 0.00 0.00 0.00 0.00 0.00 0.00 0.00 0.00 0.00 0.00 0.00 0.00 0.00 0.01 0.01 0.01 0.00 0.00 0.00 0.00 0.00 0.00 0.00 0.00 0.00 0.00 0.00 0.00 0.00 0.00 0.00 0.00 0.00 0.00
0.00 0.00 0.00 0.00 0.00 0.00 0.00 0.00 0.00 0.00 0.00 0.00 0.00 0.00 0.00 0.00 0.01 0.01 0.01 0.01 0.00 0.00 0.00 0.00 0.00 0.01 0.00 0.00 0.00 0.00 0.00 0.00 0.00 0.00 0.00 0.00 0.00 0.00
0.00 0.00 0.00 0.00 0.00 0.00 0.00 0.00 0.00 0.00 0.00 0.00 0.00 0.00 0.00 0.00 0.01 0.01 0.01 0.01 0.00 0.00 0.00 0.00 0.01 0.01 0.01 0.00 0.00 0.01 0.00 0.00 0.00 0.00 0.00 0.00 0.00 0.00
0.00 0.00 0.00 0.00 0.00 0.00 0.00 0.00 0.00 0.00 0.00 0.00 0.00 0.00 0.00 0.00 0.01 0.01 0.01 0.01 0.00 0.00 0.00 0.00 0.00 0.00 0.00 0.00 0.00 0.00 0.00 0.00 0.00 0.00 0.00 0.00 0.00 0.00
0.00 0.00 0.00 0.00 0.00 0.00 0.00 0.00 0.00 0.00 0.00 0.00 0.00 0.00 0.00 0.00 0.00 0.01 0.01 0.01 0.01 0.00 0.00 0.00 0.00 0.00 0.00 0.00 0.00 0.00 0.00 0.00 0.00 0.00 0.00 0.00 0.00 0.00
0.00 0.00 0.00 0.00 0.00 0.00 0.00 0.00 0.00 0.00 0.00 0.00 0.00 0.00 0.00 0.00 0.00 0.00 0.00 0.01 0.02 0.01 0.00 0.00 0.00 0.00 0.00 0.00 0.00 0.00 0.00 0.00 0.00 0.00 0.00 0.00 0.00 0.01
0.00 0.00 0.00 0.00 0.00 0.00 0.00 0.00 0.00 0.00 0.00 0.00 0.00 0.00 0.00 0.00 0.00 0.00 0.00 0.00 0.01 0.01 0.01 0.00 0.00 0.00 0.00 0.00 0.00 0.00 0.00 0.00 0.00 0.00 0.00 0.00 0.00 0.01
0.00 0.00 0.00 0.00 0.00 0.00 0.00 0.00 0.00 0.00 0.00 0.00 0.00 0.00 0.00 0.00 0.00 0.00 0.00 0.00 0.00 0.00 0.01 0.00 0.00 0.00 0.00 0.00 0.00 0.00 0.00 0.00 0.00 0.00 0.00 0.00 0.01 0.01
0.00 0.00 0.00 0.00 0.00 0.00 0.00 0.00 0.00 0.00 0.00 0.00 0.00 0.00 0.00 0.00 0.00 0.00 0.00 0.00 0.00 0.00 0.01 0.01 0.00 0.00 0.00 0.00 0.00 0.01 0.00 0.00 0.00 0.00 0.01 0.01 0.02 0.01
0.00 0.00 0.00 0.00 0.00 0.00 0.00 0.00 0.00 0.00 0.00 0.00 0.00 0.00 0.00 0.00 0.00 0.00 0.00 0.00 0.00 0.00 0.00 0.00 0.00 0.00 0.00 0.00 0.00 0.00 0.00 0.00 0.00 0.01 0.01 0.02 0.03 0.02
0.00 0.00 0.00 0.00 0.00 0.00 0.00 0.00 0.00 0.00 0.00 0.00 0.00 0.00 0.00 0.00 0.00 0.00 0.00 0.00 0.00 0.00 0.00 0.00 0.00 0.00 0.00 0.00 0.00 0.00 0.00 0.00 0.01 0.01 0.01 0.02 0.03 0.03
0.00 0.00 0.00 0.00 0.00 0.00 0.00 0.00 0.00 0.00 0.00 0.00 0.00 0.00 0.00 0.00 0.00 0.00 0.00 0.00 0.00 0.00 0.00 0.00 0.00 0.00 0.00 0.00 0.01 0.00 0.00 0.01 0.01 0.02 0.02 0.02 0.03 0.04
0.00 0.00 0.00 0.00 0.00 0.00 0.00 0.00 0.00 0.00 0.00 0.00 0.00 0.00 0.00 0.00 0.00 0.00 0.00 0.00 0.00 0.00 0.00 0.00 0.00 0.00 0.00 0.01 0.01 0.01 0.01 0.01 0.01 0.02 0.03 0.03 0.04 0.04
0.00 0.00 0.00 0.00 0.00 0.00 0.00 0.00 0.00 0.00 0.00 0.00 0.00 0.00 0.00 0.00 0.00 0.00 0.00 0.00 0.00 0.00 0.00 0.00 0.00 0.00 0.00 0.00 0.01 0.01 0.01 0.02 0.02 0.03 0.04 0.04 0.05 0.05
0.00 0.00 0.01 0.01 0.00 0.00 0.00 0.00 0.00 0.00 0.00 0.00 0.00 0.00 0.00 0.00 0.00 0.00 0.00 0.00 0.00 0.00 0.00 0.00 0.00 0.00 0.00 0.01 0.01 0.01 0.01 0.02 0.02 0.03 0.04 0.04 0.03 0.03
0.01 0.01 0.01 0.00 0.00 0.00 0.00 0.00 0.00 0.00 0.00 0.00 0.00 0.00 0.00 0.00 0.00 0.00 0.00 0.00 0.00 0.00 0.00 0.00 0.00 0.01 0.01 0.01 0.01 0.01 0.02 0.02 0.02 0.03 0.04 0.05 0.04 0.03
MSLP
1019.60 1019.74 1019.96 1020.26 1020.61 1020.98 1021.34 1021.65 1021.90 1022.06 1022.14 1022.14 1022.06 1021.94 1021.78 1021.61 1021.45 1021.30 1021.18 1021.08 1021.02 1020.98 1020.94 1020.91 1020.86 1020.79 1020.70 1020.59 1020.46 1020.32 1020.19 1020.07 1019.97 1019.89 1019.82 1019.75 1019.67 1019.57
1020.05 1020.12 1020.27 1020.48 1020.76 1021.08 1021.41 1021.73 1022.01 1022.22 1022.37 1022.44 1022.43 1022.36 1022.23 1022.07 1021.89 1021.73 1021.59 1021.49 1021.43 1021.41 1021.42 1021.45 1021.47 1021.48 1021.46 1021.40 1021.32 1021.21 1021.09 1020.97 1020.85 1020.75 1020.66 1020.56 1020.46 1020.33
1020.64 1020.68 1020.76 1020.90 1021.11 1021.36 1021.65 1021.97 1022.27 1022.54 1022.75 1022.90 1022.96 1022.95 1022.86 1022.72 1022.55 1022.36 1022.20 1022.07 1022.00 1021.97 1021.99 1022.05 1022.11 1022.16 1022.19 1022.18 1022.12 1022.03 1021.91 1021.78 1021.65 1021.52 1021.39 1021.26 1021.12 1020.96
1021.34 1021.36 1021.40 1021.49 1021.63 1021.83 1022.09 1022.38 1022.69 1023.00 1023.28 1023.50 1023.64 1023.69 1023.65 1023.54 1023.38 1023.19 1023.00 1022.84 1022.73 1022.68 1022.68 1022.73 1022.80 1022.87 1022.91 1022.91 1022.87 1022.78 1022.65 1022.50 1022.33 1022.17 1022.00 1021.83 1021.66 1021.46
1022.07 1022.09 1022.12 1022.18 1022.28 1022.44 1022.66 1022.94 1023.25 1023.58 1023.90 1024.18 1024.39 1024.50 1024.53 1024.46 1024.31 1024.13 1023.92 1023.74 1023.59 1023.51 1023.48 1023.50 1023.55 1023.60 1023.63 1023.62 1023.56 1023.45 1023.30 1023.11 1022.91 1022.70 1022.50 1022.29 1022.07 1021.84
1022.76 1022.81 1022.85 1022.91 1022.99 1023.12 1023.31 1023.56 1023.86 1024.20 1024.55 1024.86 1025.12 1025.30 1025.38 1025.36 1025.25 1025.08 1024.89 1024.69 1024.52 1024.41 1024.34 1024.33 1024.34 1024.36 1024.36 1024.31 1024.22 1024.08 1023.88 1023.66 1023.41 1023.16 1022.91 1022.66 1022.42 1022.16
1023.35 1023.45 1023.52 1023.59 1023.67 1023.79 1023.95 1024.18 1024.46 1024.79 1025.13 1025.47 1025.76 1025.98 1026.12 1026.15 1026.09 1025.97 1025.80 1025.61 1025.44 1025.31 1025.22 1025.17 1025.14 1025.11 1025.07 1024.99 1024.85 1024.67 1024.43 1024.16 1023.87 1023.58 1023.29 1023.00 1022.72 1022.44
1023.83 1023.97 1024.09 1024.18 1024.27 1024.39 1024.53 1024.73 1024.99 1025.29 1025.62 1025.95 1026.26 1026.51 1026.69 1026.78 1026.78 1026.71 1026.58 1026.43 1026.28 1026.14 1026.04 1025.97 1025.91 1025.85 1025.76 1025.64 1025.46 1025.23 1024.96 1024.65 1024.32 1023.98 1023.65 1023.34 1023.03 1022.72
1024.19 1024.38 1024.54 1024.67 1024.78 1024.90 1025.04 1025.21 1025.43 1025.70 1026.00 1026.32 1026.63 1026.90 1027.11 1027.24 1027.30 1027.29 1027.22 1027.11 1026.99 1026.88 1026.78 1026.69 1026.61 1026.52 1026.41 1026.25 1026.04 1025.78 1025.47 1025.13 1024.76 1024.40 1024.03 1023.69 1023.35 1023.02
1024.47 1024.70 1024.90 1025.07 1025.21 1025.35 1025.48 1025.64 1025.83 1026.06 1026.33 1026.62 1026.92 1027.19 1027.42 1027.60 1027.70 1027.74 1027.72 1027.67 1027.59 1027.50 1027.41 1027.32 1027.23 1027.12 1026.99 1026.81 1026.57 1026.29 1025.96 1025.59 1025.21 1024.81 1024.42 1024.04 1023.68 1023.31
1024.72 1024.99 1025.23 1025.45 1025.62 1025.78 1025.92 1026.07 1026.24 1026.45 1026.68 1026.95 1027.22 1027.49 1027.72 1027.91 1028.05 1028.13 1028.15 1028.13 1028.08 1028.02 1027.94 1027.86 1027.76 1027.64 1027.49 1027.30 1027.05 1026.76 1026.42 1026.04 1025.63 1025.22 1024.80 1024.39 1023.99 1023.59
1025.00 1025.30 1025.59 1025.84 1026.06 1026.25 1026.41 1026.56 1026.72 1026.91 1027.12 1027.35 1027.60 1027.85 1028.08 1028.27 1028.42 1028.51 1028.56 1028.56 1028.52 1028.47 1028.40 1028.31 1028.21 1028.08 1027.93 1027.73 1027.48 1027.18 1026.83 1026.45 1026.03 1025.60 1025.16 1024.71 1024.27 1023.83
1025.34 1025.68 1026.00 1026.30 1026.56 1026.78 1026.96 1027.13 1027.30 1027.47 1027.67 1027.88 1028.10 1028.33 1028.53 1028.71 1028.85 1028.94 1028.98 1028.98 1028.94 1028.88 1028.80 1028.71 1028.60 1028.47 1028.31 1028.11 1027.86 1027.56 1027.21 1026.81 1026.39 1025.93 1025.46 1024.98 1024.50 1024.01
1025.73 1026.11 1026.47 1026.81 1027.11 1027.36 1027.58 1027.77 1027.95 1028.13 1028.31 1028.51 1028.71 1028.90 1029.08 1029.23 1029.34 1029.40 1029.43 1029.41 1029.35 1029.28 1029.19 1029.08 1028.96 1028.83 1028.66 1028.45 1028.20 1027.90 1027.55 1027.14 1026.70 1026.22 1025.72 1025.20 1024.67 1024.13
1026.15 1026.57 1026.97 1027.34 1027.68 1027.97 1028.21 1028.43 1028.62 1028.81 1028.99 1029.17 1029.35 1029.52 1029.66 1029.78 1029.86 1029.89 1029.88 1029.84 1029.77 1029.67 1029.56 1029.45 1029.32 1029.17 1029.00 1028.79 1028.53 1028.22 1027.86 1027.44 1026.97 1026.45 1025.91 1025.35 1024.77 1024.18
1026.56 1027.00 1027.44 1027.84 1028.20 1028.52 1028.79 1029.03 1029.24 1029.43 1029.61 1029.78 1029.95 1030.09 1030.21 1030.30 1030.35 1030.36 1030.32 1030.26 1030.17 1030.06 1029.95 1029.82 1029.69 1029.53 1029.35 1029.14 1028.86 1028.54 1028.15 1027.70 1027.19 1026.64 1026.05 1025.43 1024.80 1024.16
1026.89 1027.37 1027.82 1028.25 1028.63 1028.96 1029.25 1029.50 1029.72 1029.92 1030.11 1030.28 1030.43 1030.57 1030.67 1030.74 1030.77 1030.76 1030.72 1030.64 1030.55 1030.45 1030.33 1030.21 1030.07 1029.92 1029.73 1029.49 1029.20 1028.85 1028.42 1027.93 1027.38 1026.77 1026.13 1025.46 1024.78 1024.09
1027.12 1027.61 1028.08 1028.51 1028.90 1029.24 1029.54 1029.80 1030.03 1030.24 1030.43 1030.61 1030.76 1030.89 1030.99 1031.05 1031.08 1031.08 1031.04 1030.98 1030.91 1030.82 1030.72 1030.61 1030.48 1030.32 1030.12 1029.86 1029.54 1029.14 1028.66 1028.12 1027.51 1026.85 1026.15 1025.43 1024.70 1023.96
1027.22 1027.73 1028.20 1028.63 1029.02 1029.36 1029.67 1029.94 1030.17 1030.39 1030.59 1030.77 1030.93 1031.07 1031.17 1031.25 1031.30 1031.31 1031.30 1031.27 1031.23 1031.17 1031.09 1031.00 1030.88 1030.72 1030.50 1030.21 1029.85 1029.40 1028.87 1028.26 1027.59 1026.86 1026.11 1025.34 1024.57 1023.80
1027.22 1027.72 1028.20 1028.62 1029.01 1029.35 1029.66 1029.93 1030.18 1030.41 1030.62 1030.81 1030.98 1031.13 1031.26 1031.36 1031.43 1031.48 1031.51 1031.52 1031.51 1031.49 1031.44 1031.37 1031.25 1031.08 1030.84 1030.52 1030.10 1029.60 1029.00 1028.33 1027.60 1026.82 1026.01 1025.20 1024.40 1023.61
1027.13 1027.63 1028.10 1028.52 1028.91 1029.25 1029.56 1029.84 1030.10 1030.34 1030.57 1030.78 1030.97 1031.14 1031.29 1031.42 1031.52 1031.60 1031.67 1031.72 1031.75 1031.76 1031.74 1031.68 1031.56 1031.38 1031.11 1030.75 1030.28 1029.72 1029.06 1028.33 1027.54 1026.72 1025.87 1025.03 1024.21 1023.41
1026.98 1027.48 1027.94 1028.37 1028.75 1029.10 1029.42 1029.71 1029.99 1030.25 1030.49 1030.72 1030.93 1031.12 1031.29 1031.44 1031.57 1031.69 1031.79 1031.87 1031.93 1031.96 1031.95 1031.90 1031.78 1031.57 1031.28 1030.87 1030.36 1029.75 1029.04 1028.27 1027.44 1026.58 1025.72 1024.86 1024.04 1023.24
1026.80 1027.30 1027.76 1028.19 1028.58 1028.94 1029.27 1029.58 1029.87 1030.15 1030.41 1030.66 1030.88 1031.09 1031.28 1031.44 1031.59 1031.73 1031.84 1031.94 1032.02 1032.06 1032.06 1032.00 1031.87 1031.64 1031.32 1030.88 1030.34 1029.69 1028.96 1028.16 1027.31 1026.44 1025.57 1024.72 1023.90 1023.12
Thickness
5701 5701 5699 5698 5698 5697 5694 5691 5684 5676 5674 5676 5678 5680 5680 5680 5681 5681 5681 5682 5682 5683 5683 5684 5684 5684 5685 5685 5685 5684 5684 5684 5684 5684 5684 5685 5686 5686
5699 5699 5697 5696 5695 5695 5693 5691 5688 5682 5674 5674 5675 5677 5677 5677 5677 5677 5677 5677 5677 5678 5677 5678 5678 5678 5678 5678 5678 5677 5677 5677 5676 5676 5676 5677 5677 5677
5698 5697 5695 5694 5693 5692 5691 5689 5686 5683 5676 5673 5674 5675 5675 5674 5674 5674 5673 5673 5673 5672 5672 5672 5672 5672 5672 5671 5671 5670 5670 5670 5669 5669 5669 5669 5668 5669
5695 5694 5693 5693 5691 5689 5688 5686 5684 5682 5678 5673 5672 5672 5672 5671 5671 5670 5670 5669 5669 5668 5668 5667 5666 5666 5666 5665 5664 5663 5663 5662 5662 5661 5661 5661 5660 5660
5693 5692 5691 5690 5688 5687 5686 5684 5682 5680 5677 5672 5669 5668 5667 5667 5666 5666 5666 5665 5665 5664 5663 5662 5661 5660 5659 5659 5658 5657 5656 5656 5655 5654 5653 5652 5652 5652
5692 5691 5690 5689 5687 5685 5683 5681 5679 5676 5672 5669 5666 5664 5663 5663 5662 5660 5659 5659 5659 5659 5657 5656 5654 5653 5653 5652 5652 5651 5650 5649 5648 5647 5646 5645 5644 5643
5689 5688 5688 5687 5686 5685 5682 5679 5676 5672 5668 5665 5662 5660 5658 5657 5656 5655 5653 5652 5653 5652 5650 5649 5648 5646 5646 5645 5645 5644 5643 5642 5640 5639 5638 5636 5635 5634
5685 5685 5684 5684 5683 5682 5680 5678 5676 5671 5666 5662 5659 5656 5655 5654 5653 5652 5648 5647 5645 5646 5643 5642 5641 5639 5639 5638 5638 5637 5636 5634 5632 5630 5629 5627 5625 5624
5683 5682 5682 5680 5679 5677 5676 5674 5672 5670 5668 5663 5658 5655 5654 5652 5650 5647 5644 5641 5638 5639 5637 5634 5633 5632 5632 5631 5630 5629 5627 5625 5623 5621 5619 5617 5615 5613
5681 5680 5678 5676 5675 5673 5671 5668 5666 5664 5663 5661 5658 5655 5654 5651 5649 5645 5642 5638 5636 5634 5631 5626 5626 5624 5625 5624 5623 5621 5619 5616 5614 5612 5610 5607 5605 5603
5678 5677 5676 5674 5673 5671 5667 5663 5661 5659 5659 5657 5655 5652 5650 5647 5645 5641 5637 5633 5628 5626 5624 5619 5618 5617 5617 5616 5615 5612 5610 5607 5605 5603 5600 5598 5595 5592
5674 5673 5672 5671 5669 5667 5663 5660 5656 5654 5653 5651 5649 5647 5644 5642 5639 5636 5632 5626 5621 5618 5617 5613 5610 5607 5607 5608 5606 5604 5601 5598 5596 5593 5591 5588 5585 5582
5669 5668 5668 5667 5665 5663 5660 5657 5654 5652 5648 5645 5642 5640 5638 5635 5633 5630 5627 5622 5617 5613 5612 5607 5603 5599 5595 5596 5597 5596 5593 5590 5587 5584 5581 5578 5575 5571
5667 5665 5664 5663 5661 5658 5656 5653 5650 5647 5642 5639 5635 5632 5630 5628 5626 5624 5621 5617 5614 5610 5607 5603 5597 5593 5588 5586 5585 5586 5584 5581 5578 5575 5571 5568 5564 5561
5664 5662 5660 5658 5655 5652 5650 5648 5644 5640 5636 5632 5629 5626 5625 5623 5620 5617 5614 5611 5608 5604 5601 5597 5593 5588 5583 5579 5577 5575 5573 5572 5569 5565 5561 5557 5554 5551
5658 5656 5654 5651 5649 5646 5643 5640 5637 5634 5630 5626 5623 5620 5618 5615 5612 5609 5605 5602 5598 5596 5595 5591 5587 5582 5577 5574 5570 5567 5564 5560 5559 5555 5551 5548 5544 5540
5652 5648 5645 5642 5639 5637 5634 5632 5629 5626 5622 5619 5616 5612 5609 5607 5604 5600 5596 5593 5588 5586 5584 5583 5579 5575 5571 5566 5562 5558 5554 5551 5548 5544 5540 5537 5535 5530
5647 5642 5638 5635 5633 5630 5627 5624 5621 5618 5615 5612 5608 5604 5601 5598 5595 5592 5587 5583 5580 5577 5574 5572 5568 5564 5561 5558 5554 5549 5545 5541 5537 5533 5528 5524 5523 5520
5640 5636 5633 5630 5627 5624 5621 5617 5614 5611 5608 5604 5601 5597 5593 5590 5586 5582 5578 5574 5571 5568 5565 5561 5556 5551 5547 5545 5544 5539 5533 5530 5525 5521 5516 5512 5509 5508
5634 5630 5627 5624 5621 5617 5614 5610 5607 5603 5600 5596 5592 5588 5584 5580 5576 5572 5568 5564 5561 5558 5554 5549 5544 5539 5534 5532 5530 5527 5521 5516 5511 5507 5504 5501 5497 5495
5627 5624 5621 5617 5614 5611 5607 5603 5599 5595 5591 5587 5584 5580 5575 5571 5567 5563 5558 5555 5550 5546 5541 5537 5533 5529 5524 5519 5515 5513 5508 5502 5497 5492 5489 5486 5483 5481
5620 5617 5614 5610 5607 5603 5599 5595 5591 5587 5583 5579 5575 5571 5566 5562 5557 5553 5548 5543 5538 5534 5530 5525 5520 5515 5509 5504 5501 5499 5496 5491 5485 5479 5474 5469 5464 5463
5614 5610 5607 5603 5599 5595 5591 5587 5583 5579 5575 5570 5566 5561 5556 5551 5547 5542 5537 5532 5527 5522 5516 5511 5506 5500 5495 5490 5486 5483 5480 5477 5472 5467 5463 5457 5452 5448